When you browse on this site, cookies collect data to enhance your experience and personalize the content and advertising you see.
Visit our Privacy Policy to learn more. By continuing to use the site, you agree to this use of cookies and data.
  • en France
  • Liste des pays
  • À 7 jours
  • Température de l'eau
  • Carte satellitaire
  • Carte météo
  • Widgets météo
  • user-avatar
    Se connecter

    Météo par heure à Kriviny

    Ce jour, 19 Février, Mardi

    Heure Température Précipitation Vent Pression Humidité
    00:00 -5°C° 0 mm 4 m/s 745 mmHg 69%
    01:00 -4°C° 0 mm 4 m/s 744 mmHg 68%
    02:00 -4°C° 0 mm 4 m/s 744 mmHg 68%
    03:00 -5°C° 0 mm 5 m/s 743 mmHg 69%
    04:00 -5°C° 0 mm 5 m/s 743 mmHg 71%
    05:00 -5°C° 0 mm 5 m/s 742 mmHg 72%
    06:00 -5°C° 0 mm 5 m/s 742 mmHg 76%
    07:00 -5°C° 0 mm 5 m/s 741 mmHg 79%
    08:00 -5°C° 0 mm 5 m/s 741 mmHg 82%
    09:00 -2°C° 0 mm 5 m/s 740 mmHg 81%
    10:00 -1°C° 0 mm 5 m/s 740 mmHg 79%
    11:00 0°C° 0 mm 5 m/s 739 mmHg 77%
    12:00 0°C° 0 mm 5 m/s 739 mmHg 77%
    13:00 +1°C° 0 mm 5 m/s 738 mmHg 77%
    14:00 +1°C° 0 mm 5 m/s 738 mmHg 77%
    15:00 +1°C° 0 mm 5 m/s 737 mmHg 80%
    16:00 0°C° 0 mm 5 m/s 736 mmHg 83%
    17:00 0°C° 0 mm 5 m/s 735 mmHg 87%
    18:00 0°C° 0 mm 5 m/s 735 mmHg 88%
    19:00 0°C° 0 mm 5 m/s 734 mmHg 89%
    20:00 0°C° 0 mm 5 m/s 733 mmHg 89%
    21:00 0°C° 0 mm 5 m/s 733 mmHg 89%
    22:00 0°C° 0 mm 5 m/s 732 mmHg 89%
    23:00 0°C° 0 mm 5 m/s 731 mmHg 89%

    Demain, 20 Février, Mercredi

    Heure Température Précipitation Vent Pression Humidité
    00:00 0°C° 0.2 mm 5 m/s 731 mmHg 90%
    01:00 0°C° 0.2 mm 5 m/s 731 mmHg 90%
    02:00 0°C° 0.2 mm 4 m/s 731 mmHg 90%
    03:00 0°C° 0 mm 4 m/s 731 mmHg 91%
    04:00 0°C° 0 mm 4 m/s 730 mmHg 91%
    05:00 0°C° 0 mm 4 m/s 730 mmHg 92%
    06:00 0°C° 0.1 mm 4 m/s 730 mmHg 91%
    07:00 0°C° 0.1 mm 4 m/s 730 mmHg 91%
    08:00 0°C° 0.1 mm 4 m/s 730 mmHg 90%
    09:00 0°C° 0.1 mm 5 m/s 730 mmHg 88%
    10:00 +1°C° 0.1 mm 5 m/s 730 mmHg 86%
    11:00 +1°C° 0.1 mm 5 m/s 730 mmHg 84%
    12:00 +1°C° 0.1 mm 5 m/s 729 mmHg 82%
    13:00 +1°C° 0.1 mm 5 m/s 729 mmHg 80%
    14:00 +1°C° 0.1 mm 5 m/s 729 mmHg 78%
    15:00 +1°C° 0.3 mm 5 m/s 729 mmHg 80%
    16:00 0°C° 0.3 mm 5 m/s 729 mmHg 83%
    17:00 0°C° 0.3 mm 5 m/s 729 mmHg 85%
    18:00 -1°C° 0.1 mm 5 m/s 729 mmHg 83%
    19:00 -2°C° 0.1 mm 5 m/s 729 mmHg 82%
    20:00 -5°C° 0.1 mm 5 m/s 729 mmHg 80%
    21:00 -5°C° 0.2 mm 6 m/s 730 mmHg 81%
    22:00 -4°C° 0.2 mm 6 m/s 730 mmHg 81%
    23:00 -4°C° 0.2 mm 6 m/s 731 mmHg 82%

    Après-demain, 21 Février, Jeudi

    Heure Température Précipitation Vent Pression Humidité
    00:00 -5°C° 0.1 mm 6 m/s 731 mmHg 80%
    01:00 -6°C° 0.1 mm 7 m/s 732 mmHg 79%
    02:00 -6°C° 0.1 mm 7 m/s 732 mmHg 77%
    03:00 -5°C° 0 mm 6 m/s 733 mmHg 76%
    04:00 -6°C° 0 mm 6 m/s 733 mmHg 76%
    05:00 -6°C° 0 mm 6 m/s 734 mmHg 75%
    06:00 -8°C° 0 mm 6 m/s 735 mmHg 73%
    07:00 -8°C° 0 mm 6 m/s 735 mmHg 71%
    08:00 -9°C° 0 mm 6 m/s 736 mmHg 69%
    09:00 -9°C° 0 mm 6 m/s 736 mmHg 68%
    10:00 -8°C° 0 mm 6 m/s 737 mmHg 68%
    11:00 -8°C° 0 mm 6 m/s 738 mmHg 67%
    12:00 -8°C° 0.1 mm 6 m/s 738 mmHg 66%
    13:00 -6°C° 0.1 mm 6 m/s 739 mmHg 65%
    14:00 -6°C° 0.1 mm 6 m/s 739 mmHg 64%
    15:00 -8°C° 0.1 mm 6 m/s 740 mmHg 66%
    16:00 -7°C° 0.1 mm 5 m/s 741 mmHg 67%
    17:00 -7°C° 0.1 mm 5 m/s 741 mmHg 68%
    18:00 -8°C° 0 mm 5 m/s 742 mmHg 68%
    19:00 -8°C° 0 mm 5 m/s 743 mmHg 68%
    20:00 -10°C° 0 mm 5 m/s 744 mmHg 68%
    21:00 -11°C° 0 mm 5 m/s 745 mmHg 68%
    22:00 -11°C° 0 mm 5 m/s 745 mmHg 68%
    23:00 -12°C° 0 mm 5 m/s 746 mmHg 68%

    22 Février, Vendredi

    Heure Température Précipitation Vent Pression Humidité
    00:00 -12°C° 0 mm 5 m/s 747 mmHg 68%
    01:00 -12°C° 0 mm 5 m/s 747 mmHg 68%
    02:00 -13°C° 0 mm 5 m/s 748 mmHg 67%
    03:00 -13°C° 0 mm 5 m/s 749 mmHg 67%
    04:00 -13°C° 0 mm 5 m/s 749 mmHg 67%
    05:00 -13°C° 0 mm 5 m/s 750 mmHg 67%
    06:00 -12°C° 0 mm 4 m/s 751 mmHg 69%
    07:00 -12°C° 0 mm 4 m/s 752 mmHg 71%
    08:00 -12°C° 0 mm 4 m/s 752 mmHg 72%
    09:00 -11°C° 0 mm 4 m/s 753 mmHg 69%
    10:00 -10°C° 0 mm 4 m/s 753 mmHg 66%
    11:00 -10°C° 0 mm 4 m/s 753 mmHg 63%
    12:00 -9°C° 0 mm 4 m/s 753 mmHg 59%
    13:00 -10°C° 0 mm 5 m/s 754 mmHg 55%
    14:00 -8°C° 0 mm 5 m/s 754 mmHg 51%
    15:00 -8°C° 0 mm 5 m/s 754 mmHg 56%
    16:00 -8°C° 0 mm 5 m/s 754 mmHg 62%
    17:00 -8°C° 0 mm 5 m/s 754 mmHg 68%
    18:00 -10°C° 0 mm 5 m/s 754 mmHg 70%
    19:00 -10°C° 0 mm 5 m/s 755 mmHg 72%
    20:00 -10°C° 0 mm 5 m/s 755 mmHg 74%
    21:00 -9°C° 0 mm 4 m/s 755 mmHg 75%
    22:00 -10°C° 0 mm 4 m/s 756 mmHg 75%
    23:00 -10°C° 0 mm 4 m/s 756 mmHg 75%

    23 Février, Samedi

    Heure Température Précipitation Vent Pression Humidité
    00:00 -10°C° 0 mm 3 m/s 756 mmHg 78%
    01:00 -10°C° 0 mm 3 m/s 756 mmHg 81%
    02:00 -9°C° 0 mm 2 m/s 757 mmHg 84%
    03:00 -10°C° 0 mm 2 m/s 756 mmHg 84%
    04:00 -10°C° 0 mm 2 m/s 756 mmHg 85%
    05:00 -9°C° 0 mm 1 m/s 756 mmHg 86%
    06:00 -9°C° 0 mm 1 m/s 756 mmHg 84%
    07:00 -8°C° 0 mm 1 m/s 756 mmHg 83%
    08:00 -8°C° 0 mm 1 m/s 756 mmHg 81%
    09:00 -7°C° 0 mm 1 m/s 755 mmHg 78%
    10:00 -7°C° 0 mm 1 m/s 755 mmHg 75%
    11:00 -6°C° 0 mm 1 m/s 755 mmHg 72%
    12:00 -6°C° 0.2 mm 1 m/s 754 mmHg 76%
    13:00 -6°C° 0.2 mm 1 m/s 754 mmHg 80%
    14:00 -4°C° 0.2 mm 1 m/s 754 mmHg 84%
    15:00 -4°C° 0.2 mm 1 m/s 754 mmHg 85%
    16:00 -4°C° 0.2 mm 1 m/s 753 mmHg 87%
    17:00 -6°C° 0.2 mm 2 m/s 753 mmHg 88%
    18:00 -4°C° 0 mm 1 m/s 753 mmHg 90%
    19:00 -6°C° 0 mm 1 m/s 754 mmHg 92%
    20:00 -6°C° 0 mm 1 m/s 754 mmHg 94%
    21:00 -6°C° 0 mm 1 m/s 754 mmHg 94%
    22:00 -7°C° 0 mm 1 m/s 755 mmHg 95%
    23:00 -7°C° 0 mm 1 m/s 755 mmHg 95%

    24 Février, Dimanche

    Heure Température Précipitation Vent Pression Humidité
    00:00 -7°C° 0 mm 1 m/s 755 mmHg 95%
    01:00 -7°C° 0 mm 1 m/s 756 mmHg 95%
    02:00 -8°C° 0 mm 2 m/s 756 mmHg 94%
    03:00 -7°C° 0 mm 1 m/s 756 mmHg 94%
    04:00 -8°C° 0 mm 1 m/s 756 mmHg 94%
    05:00 -8°C° 0 mm 1 m/s 756 mmHg 93%
    06:00 -8°C° 0 mm 2 m/s 757 mmHg 92%
    07:00 -8°C° 0 mm 2 m/s 757 mmHg 91%
    08:00 -8°C° 0 mm 2 m/s 757 mmHg 90%
    09:00 -7°C° 0 mm 2 m/s 757 mmHg 86%
    10:00 -6°C° 0 mm 3 m/s 756 mmHg 81%
    11:00 -5°C° 0 mm 3 m/s 756 mmHg 76%
    12:00 -4°C° 0 mm 3 m/s 756 mmHg 75%
    13:00 -4°C° 0 mm 3 m/s 755 mmHg 74%
    14:00 -2°C° 0 mm 3 m/s 755 mmHg 72%
    15:00 -2°C° 0 mm 3 m/s 754 mmHg 75%
    16:00 -4°C° 0 mm 3 m/s 754 mmHg 78%
    17:00 -4°C° 0 mm 3 m/s 753 mmHg 81%
    18:00 -4°C° 0 mm 4 m/s 752 mmHg 83%
    19:00 -4°C° 0 mm 4 m/s 751 mmHg 85%
    20:00 -5°C° 0 mm 5 m/s 750 mmHg 87%
    21:00 -4°C° 0.2 mm 4 m/s 750 mmHg 88%
    22:00 -3°C° 0.2 mm 4 m/s 749 mmHg 89%
    23:00 -3°C° 0.2 mm 4 m/s 748 mmHg 91%
    Voir plus